QPF
0.00 0.00 0.00 0.00 0.00 0.00 0.00 0.00 0.00 0.00 0.00 0.01 0.03 0.01 0.00 0.00 0.00 0.00 0.00 0.00 0.00 0.00 0.00 0.00 0.00 0.00 0.00 0.00 0.00 0.00 0.00 0.00 0.00
0.00 0.00 0.00 0.00 0.00 0.01 0.00 0.00 0.00 0.00 0.00 0.02 0.02 0.00 0.00 0.00 0.00 0.00 0.00 0.00 0.00 0.00 0.00 0.02 0.04 0.04 0.03 0.02 0.03 0.02 0.00 0.00 0.00
0.00 0.00 0.00 0.00 0.01 0.01 0.01 0.01 0.01 0.01 0.00 0.01 0.01 0.00 0.00 0.00 0.00 0.00 0.00 0.00 0.00 0.00 0.00 0.01 0.03 0.02 0.02 0.01 0.01 0.01 0.01 0.00 0.01
0.00 0.00 0.00 0.00 0.01 0.01 0.01 0.01 0.00 0.00 0.00 0.00 0.00 0.00 0.00 0.00 0.00 0.00 0.00 0.01 0.00 0.00 0.00 0.01 0.00 0.01 0.01 0.01 0.01 0.00 0.01 0.02 0.03
0.00 0.00 0.00 0.00 0.00 0.00 0.00 0.00 0.00 0.00 0.00 0.00 0.00 0.00 0.00 0.00 0.00 0.00 0.00 0.00 0.00 0.00 0.00 0.00 0.00 0.00 0.01 0.01 0.01 0.01 0.02 0.02 0.02
0.00 0.00 0.00 0.00 0.00 0.00 0.00 0.00 0.00 0.00 0.00 0.00 0.00 0.00 0.00 0.00 0.00 0.00 0.01 0.01 0.00 0.00 0.00 0.01 0.00 0.00 0.00 0.01 0.01 0.01 0.02 0.03 0.02
0.00 0.00 0.00 0.00 0.00 0.00 0.00 0.00 0.00 0.00 0.00 0.00 0.00 0.00 0.00 0.00 0.00 0.00 0.00 0.00 0.00 0.00 0.00 0.00 0.00 0.00 0.00 0.01 0.01 0.01 0.01 0.03 0.03
0.00 0.00 0.00 0.00 0.00 0.00 0.00 0.00 0.00 0.00 0.00 0.00 0.00 0.00 0.00 0.00 0.00 0.00 0.01 0.01 0.00 0.00 0.00 0.00 0.00 0.00 0.00 0.01 0.01 0.01 0.01 0.03 0.03
0.00 0.00 0.00 0.00 0.00 0.00 0.00 0.00 0.00 0.00 0.00 0.00 0.00 0.00 0.00 0.00 0.00 0.00 0.00 0.01 0.01 0.01 0.01 0.01 0.00 0.00 0.00 0.01 0.01 0.01 0.00 0.01 0.02
0.00 0.00 0.00 0.00 0.00 0.00 0.00 0.00 0.00 0.00 0.00 0.00 0.00 0.00 0.00 0.00 0.00 0.00 0.00 0.00 0.00 0.00 0.00 0.01 0.01 0.00 0.00 0.00 0.00 0.00 0.00 0.00 0.01
0.00 0.00 0.00 0.00 0.00 0.00 0.00 0.00 0.00 0.00 0.00 0.00 0.00 0.00 0.00 0.00 0.00 0.00 0.00 0.00 0.02 0.01 0.01 0.00 0.00 0.01 0.00 0.00 0.00 0.00 0.00 0.00 0.00
0.00 0.00 0.00 0.00 0.00 0.00 0.00 0.00 0.00 0.00 0.00 0.00 0.00 0.00 0.00 0.00 0.00 0.00 0.00 0.00 0.01 0.00 0.00 0.01 0.00 0.00 0.00 0.00 0.00 0.00 0.00 0.00 0.00
0.00 0.00 0.00 0.00 0.00 0.00 0.00 0.00 0.00 0.00 0.00 0.00 0.00 0.00 0.00 0.00 0.00 0.00 0.00 0.00 0.00 0.00 0.00 0.01 0.00 0.00 0.01 0.00 0.00 0.00 0.00 0.00 0.00
0.00 0.00 0.00 0.00 0.00 0.00 0.00 0.00 0.00 0.00 0.00 0.00 0.00 0.00 0.00 0.00 0.00 0.00 0.00 0.00 0.00 0.00 0.00 0.00 0.00 0.01 0.01 0.00 0.00 0.00 0.00 0.00 0.00
0.00 0.00 0.00 0.00 0.00 0.00 0.00 0.00 0.00 0.00 0.00 0.00 0.00 0.00 0.00 0.00 0.00 0.00 0.00 0.00 0.00 0.00 0.00 0.00 0.00 0.00 0.00 0.00 0.00 0.00 0.00 0.00 0.00
0.00 0.00 0.00 0.00 0.00 0.00 0.00 0.00 0.00 0.00 0.00 0.00 0.00 0.00 0.00 0.00 0.00 0.00 0.00 0.00 0.00 0.00 0.00 0.00 0.00 0.00 0.00 0.00 0.00 0.00 0.00 0.00 0.00
0.00 0.00 0.00 0.00 0.00 0.00 0.00 0.00 0.00 0.00 0.00 0.00 0.00 0.00 0.00 0.00 0.00 0.00 0.00 0.00 0.00 0.00 0.00 0.00 0.00 0.00 0.00 0.00 0.00 0.00 0.00 0.00 0.00
0.00 0.00 0.00 0.00 0.00 0.00 0.00 0.00 0.00 0.00 0.00 0.00 0.00 0.00 0.00 0.00 0.00 0.00 0.00 0.00 0.00 0.00 0.00 0.00 0.00 0.00 0.00 0.00 0.00 0.00 0.00 0.00 0.00
0.01 0.00 0.00 0.00 0.00 0.00 0.00 0.00 0.00 0.00 0.00 0.00 0.00 0.00 0.00 0.00 0.00 0.00 0.00 0.00 0.00 0.00 0.00 0.00 0.00 0.00 0.00 0.00 0.00 0.00 0.00 0.00 0.00
0.03 0.01 0.00 0.00 0.00 0.00 0.00 0.00 0.00 0.00 0.00 0.00 0.00 0.00 0.00 0.00 0.00 0.00 0.00 0.00 0.00 0.00 0.00 0.00 0.00 0.00 0.00 0.00 0.00 0.00 0.00 0.00 0.00
MSLP
1021.13 1021.38 1021.65 1021.91 1022.06 1022.19 1022.40 1022.60 1022.77 1022.86 1022.94 1023.07 1023.34 1023.65 1023.90 1023.91 1024.12 1024.21 1024.41 1024.30 1024.36 1024.30 1024.34 1024.18 1024.09 1023.98 1023.84 1023.72 1023.69 1023.63 1023.51 1023.37 1023.20
1021.59 1021.86 1022.09 1022.20 1022.34 1022.47 1022.72 1022.91 1023.17 1023.32 1023.48 1023.67 1023.87 1024.24 1024.45 1024.40 1024.64 1024.75 1024.88 1024.84 1024.92 1024.73 1024.81 1024.56 1024.47 1024.33 1024.23 1024.12 1023.98 1024.01 1023.97 1023.88 1023.74
1021.84 1022.21 1022.39 1022.47 1022.51 1022.72 1022.99 1023.28 1023.58 1023.74 1024.00 1024.27 1024.60 1024.82 1024.85 1024.80 1025.01 1025.20 1025.33 1025.35 1025.37 1025.24 1025.27 1025.11 1024.92 1024.81 1024.84 1024.71 1024.54 1024.45 1024.40 1024.32 1024.25
1022.12 1022.43 1022.66 1022.78 1022.86 1023.11 1023.45 1023.64 1023.91 1024.24 1024.61 1024.87 1025.24 1025.36 1025.42 1025.27 1025.51 1025.63 1025.96 1026.01 1025.84 1025.80 1025.80 1025.72 1025.71 1025.56 1025.51 1025.37 1025.18 1025.05 1024.86 1024.74 1024.67
1022.42 1022.72 1022.96 1023.17 1023.32 1023.53 1023.86 1024.13 1024.33 1024.84 1025.14 1025.45 1025.73 1025.88 1025.83 1025.75 1025.99 1026.10 1026.36 1026.54 1026.39 1026.27 1026.34 1026.37 1026.25 1026.25 1026.20 1025.92 1025.82 1025.62 1025.34 1025.29 1025.32
1022.79 1023.12 1023.32 1023.52 1023.68 1023.98 1024.35 1024.56 1025.03 1025.47 1025.75 1026.02 1026.18 1026.12 1026.22 1026.36 1026.52 1026.65 1026.89 1026.93 1026.99 1027.04 1026.96 1026.85 1026.90 1026.71 1026.74 1026.44 1026.32 1026.14 1026.07 1025.94 1025.93
1023.08 1023.47 1023.74 1023.96 1024.13 1024.34 1024.76 1025.16 1025.61 1025.82 1026.08 1026.40 1026.49 1026.54 1026.65 1026.79 1026.93 1027.06 1027.27 1027.38 1027.46 1027.57 1027.63 1027.55 1027.48 1027.30 1027.24 1027.00 1026.89 1026.75 1026.69 1026.50 1026.49
1023.39 1023.77 1024.12 1024.39 1024.63 1024.86 1025.31 1025.66 1025.99 1026.22 1026.44 1026.76 1026.92 1027.03 1027.09 1027.21 1027.28 1027.55 1027.69 1027.67 1027.76 1027.96 1028.00 1028.00 1028.02 1027.85 1027.71 1027.59 1027.44 1027.36 1027.32 1027.10 1027.08
1023.73 1024.06 1024.38 1024.78 1025.04 1025.42 1025.70 1026.02 1026.40 1026.67 1026.96 1027.11 1027.28 1027.43 1027.54 1027.58 1027.63 1027.87 1028.02 1028.05 1028.09 1028.23 1028.23 1028.30 1028.31 1028.29 1028.24 1028.12 1028.05 1027.92 1027.81 1027.70 1027.56
1024.01 1024.42 1024.64 1025.03 1025.38 1025.73 1026.05 1026.29 1026.64 1026.92 1027.28 1027.59 1027.70 1027.87 1027.99 1028.06 1028.28 1028.22 1028.45 1028.38 1028.36 1028.47 1028.50 1028.54 1028.57 1028.71 1028.72 1028.59 1028.58 1028.41 1028.40 1028.29 1028.12
1024.13 1024.58 1024.87 1025.31 1025.66 1026.03 1026.21 1026.52 1026.88 1027.27 1027.50 1027.87 1028.14 1028.28 1028.41 1028.51 1028.61 1028.59 1028.76 1028.72 1028.80 1028.76 1028.80 1028.89 1028.92 1029.01 1029.04 1029.14 1029.06 1028.97 1028.83 1028.72 1028.63
1024.23 1024.61 1025.03 1025.45 1025.98 1026.27 1026.58 1026.96 1027.25 1027.53 1027.87 1028.12 1028.38 1028.48 1028.56 1028.67 1028.89 1029.10 1029.10 1029.12 1029.13 1029.11 1029.25 1029.22 1029.25 1029.45 1029.43 1029.52 1029.56 1029.50 1029.38 1029.25 1029.06
1024.26 1024.61 1025.00 1025.51 1026.06 1026.30 1026.63 1027.00 1027.42 1027.72 1027.90 1028.28 1028.42 1028.55 1028.69 1028.83 1029.13 1029.26 1029.33 1029.39 1029.56 1029.60 1029.60 1029.62 1029.59 1029.59 1029.68 1029.75 1029.80 1029.89 1029.88 1029.78 1029.65
1024.18 1024.55 1025.04 1025.47 1025.95 1026.38 1026.63 1027.11 1027.29 1027.79 1028.14 1028.49 1028.72 1028.91 1028.80 1028.65 1028.93 1029.16 1029.37 1029.61 1029.78 1029.88 1030.02 1030.07 1030.03 1030.00 1029.92 1030.00 1030.04 1030.15 1030.18 1030.12 1030.03
1024.13 1024.61 1025.01 1025.41 1025.78 1026.24 1026.58 1026.91 1027.42 1027.77 1028.15 1028.66 1029.07 1029.23 1029.11 1029.16 1028.94 1028.99 1029.24 1029.45 1029.73 1029.94 1030.05 1030.14 1030.23 1030.25 1030.11 1030.12 1030.24 1030.30 1030.34 1030.33 1030.26
1023.95 1024.51 1024.96 1025.30 1025.57 1026.17 1026.52 1027.08 1027.46 1028.05 1028.34 1028.68 1029.16 1029.33 1029.33 1029.26 1029.31 1029.38 1029.36 1029.42 1029.57 1029.78 1030.02 1030.21 1030.32 1030.37 1030.49 1030.40 1030.40 1030.38 1030.44 1030.52 1030.43
1023.67 1024.19 1024.72 1025.06 1025.50 1025.93 1026.40 1026.69 1027.40 1027.92 1028.24 1028.43 1028.88 1029.07 1029.24 1029.27 1029.44 1029.54 1029.60 1029.64 1029.74 1029.78 1029.93 1030.16 1030.35 1030.45 1030.50 1030.61 1030.65 1030.59 1030.49 1030.52 1030.48
1023.23 1023.71 1024.22 1024.76 1025.16 1025.63 1025.99 1026.31 1026.70 1027.44 1028.15 1028.24 1028.37 1029.03 1028.87 1029.16 1029.31 1029.37 1029.49 1029.64 1029.77 1029.85 1030.00 1030.15 1030.28 1030.35 1030.43 1030.57 1030.63 1030.71 1030.71 1030.61 1030.45
1022.88 1023.35 1023.69 1024.28 1024.75 1025.34 1025.55 1025.87 1026.46 1026.96 1027.58 1028.35 1028.33 1028.36 1028.56 1028.88 1029.06 1029.28 1029.31 1029.42 1029.77 1029.90 1030.06 1029.99 1030.16 1030.33 1030.35 1030.43 1030.52 1030.64 1030.69 1030.68 1030.58
1022.75 1023.15 1023.48 1023.93 1024.40 1024.87 1025.14 1025.76 1026.10 1026.41 1027.10 1027.39 1028.09 1028.41 1028.76 1028.77 1028.86 1028.94 1029.20 1029.33 1029.13 1029.28 1029.65 1029.90 1029.96 1030.01 1030.14 1030.24 1030.28 1030.40 1030.47 1030.48 1030.45
Thickness
5716 5718 5719 5719 5720 5721 5720 5720 5720 5720 5720 5720 5719 5717 5716 5715 5713 5712 5710 5712 5711 5711 5710 5710 5710 5709 5709 5708 5707 5705 5703 5701 5699
5712 5714 5715 5716 5717 5718 5718 5718 5717 5717 5717 5716 5716 5714 5713 5712 5710 5709 5708 5708 5707 5708 5707 5708 5707 5707 5707 5706 5705 5703 5702 5699 5697
5709 5710 5711 5713 5715 5715 5715 5715 5714 5714 5713 5713 5711 5710 5710 5710 5708 5706 5705 5704 5704 5704 5704 5704 5704 5704 5703 5703 5702 5701 5700 5697 5695
5706 5707 5708 5710 5711 5712 5711 5711 5711 5710 5709 5708 5707 5707 5707 5707 5704 5703 5701 5700 5700 5700 5700 5700 5699 5699 5698 5699 5699 5698 5698 5696 5694
5702 5703 5705 5706 5706 5707 5706 5706 5707 5705 5704 5703 5703 5703 5703 5703 5701 5700 5698 5696 5696 5697 5696 5695 5696 5695 5694 5695 5695 5695 5695 5694 5691
5698 5698 5699 5701 5702 5701 5700 5701 5700 5699 5698 5698 5698 5699 5698 5697 5696 5696 5694 5693 5692 5692 5692 5692 5691 5692 5691 5691 5691 5690 5690 5690 5688
5694 5693 5694 5695 5697 5696 5695 5695 5695 5693 5692 5692 5693 5693 5692 5692 5691 5691 5690 5689 5688 5687 5686 5686 5686 5687 5687 5687 5687 5687 5685 5685 5684
5689 5688 5689 5689 5691 5690 5689 5688 5688 5688 5687 5686 5687 5687 5688 5687 5687 5686 5685 5685 5684 5683 5682 5682 5681 5682 5683 5682 5682 5682 5681 5680 5679
5682 5683 5684 5684 5685 5684 5683 5682 5682 5681 5681 5681 5682 5682 5682 5682 5682 5681 5681 5680 5680 5679 5679 5678 5678 5678 5677 5678 5677 5677 5676 5675 5675
5677 5677 5678 5679 5679 5678 5677 5677 5676 5676 5675 5675 5676 5676 5676 5676 5676 5676 5675 5676 5676 5675 5674 5674 5673 5672 5672 5672 5672 5672 5671 5670 5670
5672 5672 5673 5673 5673 5673 5673 5672 5671 5670 5670 5669 5669 5670 5671 5670 5671 5671 5671 5671 5670 5670 5670 5669 5669 5668 5667 5666 5666 5666 5666 5666 5665
5668 5668 5668 5669 5668 5668 5668 5667 5666 5665 5665 5664 5664 5665 5665 5665 5664 5665 5665 5665 5665 5665 5664 5664 5664 5662 5662 5661 5660 5660 5660 5660 5661
5663 5664 5664 5664 5663 5664 5664 5663 5662 5661 5661 5660 5660 5660 5660 5660 5659 5659 5659 5659 5659 5659 5658 5658 5658 5658 5657 5656 5655 5654 5654 5654 5654
5659 5659 5659 5659 5659 5659 5659 5659 5659 5657 5656 5655 5654 5654 5655 5657 5656 5655 5654 5654 5654 5653 5652 5652 5652 5652 5652 5651 5650 5649 5649 5649 5648
5654 5655 5655 5655 5655 5655 5655 5656 5655 5654 5653 5650 5649 5649 5649 5649 5651 5651 5650 5649 5649 5649 5648 5647 5646 5647 5647 5646 5645 5644 5644 5643 5644
5652 5652 5652 5652 5653 5652 5652 5651 5651 5648 5647 5647 5644 5643 5644 5645 5645 5645 5645 5645 5644 5643 5643 5642 5641 5641 5640 5640 5640 5639 5639 5638 5638
5651 5650 5650 5650 5650 5650 5649 5650 5646 5644 5644 5645 5642 5640 5641 5642 5641 5640 5639 5639 5638 5638 5638 5636 5635 5635 5634 5634 5633 5633 5633 5633 5633
5649 5649 5650 5649 5648 5648 5648 5648 5648 5643 5640 5642 5644 5635 5639 5637 5638 5638 5636 5635 5634 5633 5632 5631 5630 5630 5629 5628 5628 5627 5627 5627 5627
5647 5648 5649 5649 5648 5646 5647 5646 5645 5644 5641 5637 5639 5640 5639 5636 5635 5633 5633 5631 5630 5629 5627 5626 5625 5624 5623 5624 5623 5622 5621 5621 5620
5642 5644 5645 5646 5645 5645 5645 5643 5643 5644 5640 5640 5635 5634 5631 5631 5631 5631 5629 5627 5628 5626 5624 5623 5622 5621 5619 5618 5618 5617 5615 5614 5614